Location: Star Hoppers Observatory
(42.7905°N, 83.6127°W)
Time: 13:31:32
(UTC-05:00)

Amateur Radio Satellites - All Passes

Search period start: 22 December 2014 13:01
Search period end: 23 December 2014 13:01
Location: Star Hoppers Observatory, 42.7905°N, 83.6127°W

Satellite Date Start Highest point End Downlink Frequencies (MHz)
Time Altitude Azimuth
TISAT 1 22 Dec 13:08:13 13:12:25 67° 286° (WNW) 13:16:37 437.305
YUBILEINY 22 Dec 13:08:24 13:14:56 25° 280° (W) 13:21:29 435.215
SWISSCUBE 22 Dec 13:11:50 13:15:29 22° 93° (E) 13:19:07 437.505
ITUPSAT 1 22 Dec 13:13:13 13:16:45 20° 93° (E) 13:20:14 437.325
SPROUT 22 Dec 13:17:58 13:22:11 56° 287° (WNW) 13:26:24 437.525
ESTCUBE 1 22 Dec 13:22:00 13:24:30 15° 298° (WNW) 13:26:59 437.505/2401.250
BEESAT 22 Dec 13:35:55 13:40:16 34° 97° (E) 13:44:35 436.000
ISS 22 Dec 13:47:32 13:50:50 86° 146° (SE) 13:54:09 145.825
BEESAT 3 22 Dec 13:50:24 13:54:26 56° 307° (NW) 13:58:33 437.485
RS-15 22 Dec 13:52:24 14:02:48 47° 318° (NW) 14:13:22 29.354- 29.394
M-CUBED/EXP-1 PRIME 22 Dec 13:52:33 13:54:56 15° 94° (E) 13:57:12 437.505
AO-7 22 Dec 13:53:31 13:59:21 22° 50° (NE) 14:05:11 29.400- 29.500
Oscar 19 22 Dec 14:07:45 14:12:16 31° 264° (W) 14:16:51 437.125/150
AIST 2 22 Dec 14:08:28 14:12:42 87° 303° (WNW) 14:17:02 435.215
KKS-1 22 Dec 14:08:44 14:11:22 15° 91° (E) 14:14:00 437.445
PCSat 22 Dec 14:12:07 14:17:32 79° 301° (WNW) 14:22:59 145.827
ITAMSAT 1 22 Dec 14:27:16 14:32:18 52° 260° (W) 14:37:22 435.822/435.867
BEESAT 2 22 Dec 14:32:53 14:36:26 27° 314° (NW) 14:40:02 435.950
Gurwin Techsat 1B 22 Dec 14:33:46 14:39:04 76° 257° (WSW) 14:44:24 435.225
HORYU 2 22 Dec 14:38:17 14:42:35 48° 71° (ENE) 14:46:55 437.375
SWISSCUBE 22 Dec 14:49:02 14:53:30 42° 290° (WNW) 14:57:57 437.505
ITUPSAT 1 22 Dec 14:50:18 14:54:50 44° 290° (WNW) 14:59:21 437.325
AUBIESAT-1 22 Dec 14:58:50 15:03:08 74° 107° (ESE) 15:07:02 437.475
GONETS M04 22 Dec 15:10:26 15:16:11 19° 60° (ENE) 15:21:53
BEESAT 22 Dec 15:14:00 15:17:58 27° 294° (WNW) 15:21:56 436.000
ISS 22 Dec 15:25:01 15:27:45 23° 344° (NNW) 15:30:28 145.825
M-CUBED/EXP-1 PRIME 22 Dec 15:26:07 15:30:20 49° 294° (WNW) 15:34:10 437.505
JAS-2 22 Dec 15:33:17 15:39:27 29° 64° (ENE) 15:45:08 435.910
STARS 22 Dec 15:35:40 15:40:08 86° 104° (ESE) 15:44:35 437.465
AO-7 22 Dec 15:42:39 15:50:59 85° 70° (ENE) 15:59:23 29.400- 29.500
KKS-1 22 Dec 15:43:57 15:48:19 53° 288° (WNW) 15:52:40 437.445
AIST 2 22 Dec 15:49:41 15:52:00 14° 323° (NW) 15:54:19 435.215
PCSat 22 Dec 15:58:33 16:01:51 16° 322° (NW) 16:05:10 145.827
RS-15 22 Dec 16:10:31 16:18:52 24° 351° (N) 16:27:24 29.354- 29.394
HORYU 2 22 Dec 16:16:37 16:19:30 17° 268° (W) 16:22:26 437.375
CUTE-I 22 Dec 16:34:02 16:37:06 16° 59° (ENE) 16:40:10 437.470
AUBIESAT-1 22 Dec 16:35:39 16:37:23 12° 307° (NW) 16:39:04 437.475
AIST 1 22 Dec 16:57:13 17:01:35 72° 279° (W) 17:05:57
ISS 22 Dec 17:02:49 17:05:09 18° 4° (N) 17:07:28 145.825
GONETS M04 22 Dec 17:05:39 17:14:28 84° 82° (E) 17:23:11
MOZHAYETS 4 22 Dec 17:08:11 17:12:35 41° 98° (E) 17:16:54
MaSat-1 22 Dec 17:09:05 17:09:28 10° 54° (NE) 17:09:51 437.345
STARS 22 Dec 17:14:54 17:15:55 11° 301° (WNW) 17:16:57 437.465
JAS-2 22 Dec 17:16:37 17:24:07 60° 259° (W) 17:30:57 435.910
Cubesat XI-IV 22 Dec 17:38:41 17:43:53 56° 71° (ENE) 17:49:06 437.490
AO-7 22 Dec 17:38:50 17:44:41 21° 269° (W) 17:50:36 29.400- 29.500
STRAND 1 22 Dec 18:05:02 18:05:45 10° 88° (E) 18:06:27 437.568
CUTE-I 22 Dec 18:11:12 18:16:31 77° 257° (WSW) 18:21:51 437.470
CUSAT 1 22 Dec 18:19:44 18:21:23 11° 55° (NE) 18:23:04 437.405
RS-15 22 Dec 18:26:35 18:36:07 31° 27° (NNE) 18:45:54 29.354- 29.394
CUBESAT XI-V 22 Dec 18:37:41 18:41:34 27° 95° (E) 18:45:26 437.345
ISS 22 Dec 18:39:19 18:42:24 36° 24° (NNE) 18:45:28 145.825
MaSat-1 22 Dec 18:40:38 18:42:38 22° 248° (WSW) 18:44:42 437.345
PRISM 22 Dec 18:41:08 18:45:14 56° 101° (E) 18:49:16 437.425
MOZHAYETS 4 22 Dec 18:46:02 18:49:32 22° 295° (WNW) 18:53:00
HO-68 22 Dec 18:50:24 18:55:13 20° 54° (NE) 19:00:02 435.675
GONETS M04 22 Dec 19:04:16 19:10:06 20° 282° (WNW) 19:15:56
DANDE 22 Dec 19:18:52 19:25:06 25° 66° (ENE) 19:31:53 436.750
Cubesat XI-IV 22 Dec 19:20:35 19:24:20 19° 268° (W) 19:28:05 437.490
SEEDS 22 Dec 19:23:17 19:24:26 11° 61° (ENE) 19:25:35 437.485
CUTE 1.7 + AOD 2 22 Dec 19:28:24 19:30:46 15° 63° (ENE) 19:33:08 437.475
STRAND 1 22 Dec 19:40:30 19:45:38 89° 105° (ESE) 19:50:44 437.568
CUSAT 1 22 Dec 19:58:35 20:06:10 49° 74° (ENE) 20:14:21 437.405
SO-50 22 Dec 20:06:57 20:10:23 22° 111° (ESE) 20:13:54 436.795
AAUSAT CUBESAT 2 22 Dec 20:10:28 20:13:56 25° 68° (ENE) 20:17:25 437.432
Oscar 11 22 Dec 20:12:32 20:14:58 15° 63° (ENE) 20:17:24 145.826/435.025
CUBESAT XI-V 22 Dec 20:14:56 20:19:00 32° 291° (WNW) 20:23:03 437.345
ISS 22 Dec 20:15:58 20:18:57 33° 222° (SW) 20:21:55 145.825
PRISM 22 Dec 20:18:09 20:20:18 14° 298° (WNW) 20:22:26 437.425
UKube-1 22 Dec 20:22:38 20:25:03 15° 62° (ENE) 20:27:28 .
CANX-2 22 Dec 20:31:25 20:35:40 73° 75° (ENE) 20:39:59 2200.000
BEESAT 3 22 Dec 20:32:13 20:34:54 16° 40° (NE) 20:37:33 437.485
HO-68 22 Dec 20:34:48 20:42:00 90° 255° (WSW) 20:49:14 435.675
RS-15 22 Dec 20:39:17 20:50:36 78° 54° (NE) 21:02:24 29.354- 29.394
BRITE-PL 22 Dec 20:41:17 20:45:26 87° 257° (WSW) 20:49:37 437.365/2234.400
COMPASS 1 22 Dec 20:46:37 20:50:50 71° 75° (ENE) 20:55:05 437.405
CUBEBUG 2 22 Dec 20:47:35 20:50:44 21° 66° (ENE) 20:53:59 437.445
ZACube-1 22 Dec 20:48:45 20:51:20 16° 63° (ENE) 20:53:57 437.345
DELFI C3 22 Dec 20:49:46 20:53:17 28° 69° (ENE) 20:56:50 145.870
AIST 2 22 Dec 20:52:43 20:54:48 13° 36° (NE) 20:56:51 435.215
SEEDS 22 Dec 20:55:22 20:59:37 78° 258° (WSW) 21:03:55 437.485
GOMX 1 22 Dec 20:56:05 21:00:13 85° 257° (WSW) 21:04:27 467.674
VELOX 1 22 Dec 20:59:21 21:01:19 13° 61° (ENE) 21:03:17 145.980
DANDE 22 Dec 21:01:20 21:09:13 81° 262° (W) 21:17:56 436.750
CUTE 1.7 + AOD 2 22 Dec 21:02:02 21:06:13 56° 260° (W) 21:10:28 437.475
DOVE 4 22 Dec 21:10:38 21:14:46 81° 258° (WSW) 21:19:01 437.250
FUNcube-1 22 Dec 21:13:33 21:17:08 28° 68° (ENE) 21:20:48 145.935
BEESAT 2 22 Dec 21:13:36 21:17:22 30° 48° (NE) 21:21:04 435.950
PCSat 22 Dec 21:16:51 21:20:40 19° 41° (NE) 21:24:27 145.827
CINEMA 3 22 Dec 21:18:39 21:22:47 72° 75° (ENE) 21:27:06 145.822/145.860
UWE-3 22 Dec 21:19:56 21:23:50 39° 71° (ENE) 21:27:51 435.000/436.395/437.385
STRAND 1 22 Dec 21:21:52 21:24:04 13° 302° (WNW) 21:26:16 437.568
DX 1 22 Dec 21:27:55 21:32:14 72° 74° (ENE) 21:36:35 434.975-435.025
HUMSAT D 22 Dec 21:30:30 21:33:55 25° 68° (ENE) 21:37:23 437.325/437.525
CUBEBUG 1 22 Dec 21:41:07 21:43:09 13° 62° (ENE) 21:45:11 437.445
AISAT 22 Dec 21:41:33 21:45:31 34° 69° (ENE) 21:49:30 437.250
CUSAT 1 22 Dec 21:41:52 21:49:09 41° 270° (W) 21:56:55 437.405
AAUSAT CUBESAT 2 22 Dec 21:45:49 21:49:29 29° 264° (W) 21:53:11 437.432
SO-50 22 Dec 21:46:12 21:50:36 47° 310° (NW) 21:55:09 436.795
Oscar 11 22 Dec 21:46:24 21:50:40 57° 260° (W) 21:54:58 145.826/435.025
UKube-1 22 Dec 21:56:29 22:00:44 57° 259° (W) 22:05:01 .
ANTELSAT 22 Dec 21:58:13 21:59:55 12° 89° (E) 22:01:37 437.575/2403.000
BEESAT 3 22 Dec 22:09:23 22:13:33 71° 239° (WSW) 22:17:39 437.485
CANX-2 22 Dec 22:11:53 22:12:07 10° 272° (W) 22:12:21 2200.000
YUBILEINY 22 Dec 22:20:26 22:25:04 16° 75° (ENE) 22:29:41 435.215
ZACube-1 22 Dec 22:23:14 22:27:17 49° 261° (W) 22:31:28 437.345
CUBEBUG 2 22 Dec 22:23:22 22:27:13 35° 263° (W) 22:31:12 437.445
50 SAT 22 Dec 22:24:18 22:28:18 80° 76° (ENE) 22:32:23 437.505
DELFI C3 22 Dec 22:25:07 22:28:31 25° 265° (W) 22:31:56 145.870
HO-68 22 Dec 22:26:22 22:30:36 16° 271° (W) 22:34:51 435.675
COMPASS 1 22 Dec 22:26:40 22:27:02 10° 272° (W) 22:27:24 437.405
AIST 2 22 Dec 22:29:50 22:34:09 79° 56° (NE) 22:38:23 435.215
TISAT 1 22 Dec 22:29:50 22:30:27 10° 60° (ENE) 22:31:04 437.305
TIGRISAT 22 Dec 22:30:23 22:34:17 25° 94° (E) 22:38:10 435.000
DUCHIFAT 1 22 Dec 22:32:05 22:34:35 15° 92° (E) 22:37:05 145.980
VELOX 1 22 Dec 22:32:56 22:37:20 70° 258° (WSW) 22:41:45 145.980
SPROUT 22 Dec 22:39:41 22:41:33 13° 62° (ENE) 22:43:26 437.525
ESTCUBE 1 22 Dec 22:44:05 22:48:34 62° 74° (ENE) 22:53:03 437.505/2401.250
QB50P2 22 Dec 22:46:44 22:50:07 23° 94° (E) 22:53:30 145.880/145.840
DANDE 22 Dec 22:46:48 22:51:48 18° 278° (W) 22:57:05 436.750
FUNcube-1 22 Dec 22:49:57 22:53:28 26° 265° (W) 22:57:03 145.935
BEESAT 2 22 Dec 22:51:55 22:55:33 29° 246° (WSW) 22:59:08 435.950
RS-15 22 Dec 22:52:40 23:01:58 31° 256° (WSW) 23:11:37 29.354- 29.394
POLYITAN 1 22 Dec 22:56:11 22:59:55 28° 96° (E) 23:03:39 437.675
NANOSAT C BR1 22 Dec 22:56:15 22:59:56 28° 96° (E) 23:03:37 145.865
UWE-3 22 Dec 22:57:37 23:00:34 18° 268° (W) 23:03:35 435.000/436.395/437.385
PCSat 22 Dec 22:59:19 23:04:47 84° 241° (WSW) 23:10:11 145.827
UNISAT 6 22 Dec 23:00:21 23:04:58 51° 100° (E) 23:09:34 437.425
HUMSAT D 22 Dec 23:06:03 23:09:37 28° 265° (W) 23:13:15 437.325/437.525
DX 1 22 Dec 23:08:06 23:08:58 11° 271° (W) 23:09:50 434.975-435.025
QB50P1 22 Dec 23:10:51 23:14:53 40° 98° (E) 23:18:55 145.935-145.965
CUBEBUG 1 22 Dec 23:14:39 23:18:59 66° 258° (WSW) 23:23:20 437.445
AISAT 22 Dec 23:18:42 23:22:12 23° 265° (W) 23:25:43 437.250
SO-50 22 Dec 23:31:21 23:32:21 11° 331° (NNW) 23:33:22 436.795
ANTELSAT 22 Dec 23:32:29 23:37:13 76° 285° (WNW) 23:41:56 437.575/2403.000
POPSAT HIP 1 22 Dec 23:39:43 23:44:01 86° 104° (ESE) 23:48:18 437.405
BUGSAT 1 22 Dec 23:53:37 23:57:41 83° 284° (WNW) 00:01:47 437.445
TISAT 1 23 Dec 00:01:26 00:05:38 80° 257° (WSW) 00:09:51 437.305
DUCHIFAT 1 23 Dec 00:06:36 00:10:42 48° 288° (WNW) 00:14:49 145.980
TIGRISAT 23 Dec 00:06:47 00:11:04 36° 291° (WNW) 00:15:21 435.000
AIST 2 23 Dec 00:11:04 00:12:06 11° 253° (WSW) 00:13:08 435.215
YUBILEINY 23 Dec 00:11:39 00:20:23 81° 95° (E) 00:29:06 435.215
SPROUT 23 Dec 00:12:51 00:17:06 66° 259° (WSW) 00:21:22 437.525
AUBIESAT-1 23 Dec 00:15:09 00:18:04 16° 56° (NE) 00:20:59 437.475
SWISSCUBE 23 Dec 00:19:19 00:23:23 28° 67° (ENE) 00:27:27 437.505
ITUPSAT 1 23 Dec 00:20:55 00:24:55 27° 66° (ENE) 00:28:55 437.325
QB50P2 23 Dec 00:22:15 00:26:05 33° 291° (WNW) 00:29:54 145.880/145.840
ESTCUBE 1 23 Dec 00:23:39 00:25:50 13° 270° (W) 00:28:02 437.505/2401.250
O/OREOS (USA 219) 23 Dec 00:31:24 00:35:46 57° 109° (ESE) 00:40:09 437.305
NANOSAT C BR1 23 Dec 00:32:10 00:35:44 27° 292° (WNW) 00:39:18 145.865
POLYITAN 1 23 Dec 00:32:11 00:35:46 26° 292° (WNW) 00:39:22 437.675
UNISAT 6 23 Dec 00:38:06 00:41:22 19° 296° (WNW) 00:44:38 437.425
M-CUBED/EXP-1 PRIME 23 Dec 00:41:07 00:45:18 29° 62° (ENE) 00:49:30 437.505
Oscar 19 23 Dec 00:41:52 00:42:49 10° 87° (E) 00:43:46 437.125/150
BEESAT 23 Dec 00:43:14 00:47:46 44° 70° (ENE) 00:52:18 436.000
PCSat 23 Dec 00:45:46 00:47:17 11° 259° (WSW) 00:48:49 145.827
QB50P1 23 Dec 00:47:28 00:50:30 19° 295° (WNW) 00:53:31 145.935-145.965
KKS-1 23 Dec 01:08:17 01:11:04 17° 63° (ENE) 01:13:51 437.445
AUBIESAT-1 23 Dec 01:47:34 01:52:25 75° 253° (WSW) 01:57:19 437.475
VERMONT LUNAR 23 Dec 01:51:10 01:53:19 15° 151° (SSE) 01:55:29 437.305
SWISSCUBE 23 Dec 01:56:49 02:01:08 33° 263° (W) 02:05:28 437.505
ITUPSAT 1 23 Dec 01:58:16 02:02:39 35° 263° (W) 02:07:04 437.325
YUBILEINY 23 Dec 02:11:39 02:18:13 23° 297° (WNW) 02:24:49 435.215
O/OREOS (USA 219) 23 Dec 02:12:41 02:15:33 17° 308° (NW) 02:18:26 437.305
M-CUBED/EXP-1 PRIME 23 Dec 02:15:37 02:20:07 37° 258° (WSW) 02:24:41 437.505
PHONESAT 2.4 23 Dec 02:17:18 02:19:36 16° 151° (SSE) 02:21:54 2401.200-2431.200
Oscar 19 23 Dec 02:17:38 02:22:53 88° 104° (ESE) 02:28:05 437.125/150
BEESAT 23 Dec 02:22:12 02:25:47 21° 267° (W) 02:29:23 436.000
STARS 23 Dec 02:33:32 02:37:55 84° 75° (ENE) 02:42:20 437.465
ITAMSAT 1 23 Dec 02:39:09 02:44:13 52° 100° (E) 02:49:15 435.822/435.867
KKS-1 23 Dec 02:42:59 02:47:18 52° 260° (W) 02:51:39 437.445
Gurwin Techsat 1B 23 Dec 02:49:20 02:54:20 41° 98° (E) 02:59:19 435.225
AIST 1 23 Dec 03:04:07 03:07:51 29° 74° (ENE) 03:11:34
VERMONT LUNAR 23 Dec 03:27:45 03:31:08 44° 166° (SSE) 03:34:30 437.305
AO-7 23 Dec 03:44:13 03:51:00 27° 94° (E) 03:57:43 29.400- 29.500
PHONESAT 2.4 23 Dec 03:54:18 03:57:47 44° 166° (SSE) 04:01:15 2401.200-2431.200
Oscar 19 23 Dec 03:59:01 04:01:28 14° 302° (WNW) 04:03:54 437.125/150
HORYU 2 23 Dec 04:05:24 04:09:57 89° 104° (ESE) 04:14:28 437.375
MOZHAYETS 4 23 Dec 04:10:54 04:15:17 43° 71° (ENE) 04:19:42
GONETS M04 23 Dec 04:14:23 04:20:10 20° 77° (ENE) 04:25:56
ITAMSAT 1 23 Dec 04:19:29 04:23:20 22° 297° (WNW) 04:27:10 435.822/435.867
JAS-2 23 Dec 04:27:54 04:31:02 15° 88° (E) 04:34:03 435.910
Gurwin Techsat 1B 23 Dec 04:29:41 04:34:06 27° 295° (WNW) 04:38:30 435.225
SO-50 23 Dec 04:36:35 04:40:53 30° 45° (NE) 04:45:11 436.795
AIST 1 23 Dec 04:42:00 04:45:22 23° 272° (W) 04:48:43
VERMONT LUNAR 23 Dec 05:05:45 05:09:14 59° 183° (S) 05:12:43 437.305
STRAND 1 23 Dec 05:20:11 05:23:39 19° 62° (ENE) 05:27:08 437.568
PRISM 23 Dec 05:32:32 05:36:35 47° 72° (ENE) 05:40:38 437.425
PHONESAT 2.4 23 Dec 05:32:41 05:36:16 60° 183° (S) 05:39:51 2401.200-2431.200
AO-7 23 Dec 05:36:05 05:44:24 70° 293° (WNW) 05:52:40 29.400- 29.500
CUBESAT XI-V 23 Dec 05:42:03 05:46:04 29° 68° (ENE) 05:50:05 437.345
HORYU 2 23 Dec 05:44:54 05:45:54 11° 301° (WNW) 05:46:54 437.375
MOZHAYETS 4 23 Dec 05:49:17 05:52:42 20° 268° (W) 05:56:08
Cubesat XI-IV 23 Dec 05:55:59 05:59:56 21° 93° (E) 06:03:52 437.490
GONETS M04 23 Dec 06:06:53 06:15:45 87° 277° (W) 06:24:39
JAS-2 23 Dec 06:11:17 06:16:50 65° 288° (WNW) 06:21:58 435.910
SO-50 23 Dec 06:16:56 06:21:33 42° 243° (WSW) 06:26:10 436.795
CUTE-I 23 Dec 06:27:42 06:32:42 40° 98° (E) 06:37:39 437.470
VERMONT LUNAR 23 Dec 06:44:06 06:47:16 31° 200° (SSW) 06:50:25 437.305
STRAND 1 23 Dec 06:57:21 07:02:23 59° 259° (W) 07:07:26 437.568
PRISM 23 Dec 07:09:48 07:12:21 16° 268° (W) 07:14:54 437.425
PHONESAT 2.4 23 Dec 07:11:25 07:14:41 32° 200° (SSW) 07:17:56 2401.200-2431.200
CUBESAT XI-V 23 Dec 07:19:22 07:23:27 29° 265° (W) 07:27:31 437.345
AO-7 23 Dec 07:30:42 07:35:44 18° 314° (NW) 07:40:46 29.400- 29.500
Cubesat XI-IV 23 Dec 07:35:10 07:40:19 52° 290° (WNW) 07:45:27 437.490
MaSat-1 23 Dec 07:58:03 07:59:20 14° 110° (ESE) 08:00:36 437.345
HO-68 23 Dec 08:03:43 08:07:45 16° 89° (E) 08:11:46 435.675
GONETS M04 23 Dec 08:07:56 08:13:57 20° 300° (WNW) 08:20:00
CUTE-I 23 Dec 08:08:07 08:12:35 28° 295° (WNW) 08:17:03 437.470
CANX-2 23 Dec 08:18:16 08:20:04 12° 89° (E) 08:21:50 2200.000
COMPASS 1 23 Dec 08:32:18 08:33:35 11° 89° (E) 08:34:52 437.405
DANDE 23 Dec 08:38:08 08:39:17 11° 77° (ENE) 08:40:31 436.750
SEEDS 23 Dec 08:40:29 08:43:19 17° 92° (E) 08:46:08 437.485
BRITE-PL 23 Dec 08:44:23 08:48:34 29° 96° (E) 08:53:01 437.365/2234.400
CUTE 1.7 + AOD 2 23 Dec 08:47:17 08:50:46 23° 94° (E) 08:54:13 437.475
GOMX 1 23 Dec 08:56:30 09:00:40 28° 95° (E) 09:05:03 467.674
ANTELSAT 23 Dec 08:59:02 09:00:44 12° 60° (ENE) 09:02:27 437.575/2403.000
O/OREOS (USA 219) 23 Dec 09:02:21 09:05:06 16° 52° (NE) 09:07:51 437.305
DOVE 4 23 Dec 09:08:35 09:12:44 27° 95° (E) 09:17:02 437.250
CUSAT 1 23 Dec 09:12:01 09:15:36 34° 88° (E) 09:20:17 437.405
CINEMA 3 23 Dec 09:13:19 09:16:39 18° 92° (E) 09:20:03 145.822/145.860
DX 1 23 Dec 09:17:58 09:19:23 11° 90° (E) 09:20:48 434.975-435.025
DUCHIFAT 1 23 Dec 09:26:39 09:28:46 14° 62° (ENE) 09:30:54 145.980
AAUSAT CUBESAT 2 23 Dec 09:28:06 09:32:08 41° 98° (E) 09:36:08 437.432
TIGRISAT 23 Dec 09:30:33 09:34:03 24° 66° (ENE) 09:37:38 435.000
MaSat-1 23 Dec 09:31:19 09:32:19 12° 305° (NW) 09:33:18 437.345
Oscar 11 23 Dec 09:33:34 09:37:08 24° 94° (E) 09:40:40 145.826/435.025
QB50P2 23 Dec 09:41:17 09:44:22 20° 65° (ENE) 09:47:27 145.880/145.840
UKube-1 23 Dec 09:44:10 09:47:32 22° 94° (E) 09:50:53 .
HO-68 23 Dec 09:49:12 09:56:24 88° 107° (ESE) 10:03:33 435.675
NANOSAT C BR1 23 Dec 09:50:23 09:53:46 24° 67° (ENE) 09:57:10 145.865
POLYITAN 1 23 Dec 09:50:46 09:54:12 25° 67° (ENE) 09:57:39 437.675
CANX-2 23 Dec 09:52:07 09:56:24 61° 286° (WNW) 10:00:38 2200.000
UNISAT 6 23 Dec 10:00:25 10:04:38 48° 72° (ENE) 10:09:00 437.425
DELFI C3 23 Dec 10:04:14 10:08:11 42° 98° (E) 10:12:04 145.870
QB50P1 23 Dec 10:04:50 10:08:38 34° 70° (ENE) 10:12:28 145.935-145.965
COMPASS 1 23 Dec 10:05:31 10:09:45 65° 285° (WNW) 10:13:56 437.405
50 SAT 23 Dec 10:06:16 10:07:20 11° 89° (E) 10:08:24 437.505
ZACube-1 23 Dec 10:11:14 10:15:16 30° 96° (E) 10:19:19 437.345
CUBEBUG 2 23 Dec 10:13:08 10:17:37 44° 98° (E) 10:22:09 437.445
SEEDS 23 Dec 10:15:17 10:19:21 43° 288° (WNW) 10:23:24 437.485
DANDE 23 Dec 10:17:51 10:21:33 57° 285° (WNW) 10:26:38 436.750
YUBILEINY 23 Dec 10:21:04 10:29:12 42° 72° (ENE) 10:37:17 435.215
BRITE-PL 23 Dec 10:22:47 10:27:04 34° 290° (WNW) 10:31:38 437.365/2234.400
CUTE 1.7 + AOD 2 23 Dec 10:22:53 10:26:43 32° 291° (WNW) 10:30:31 437.475
VELOX 1 23 Dec 10:23:45 10:27:05 21° 94° (E) 10:30:25 145.980
ANTELSAT 23 Dec 10:32:27 10:36:51 77° 258° (WSW) 10:41:24 437.575/2403.000
POPSAT HIP 1 23 Dec 10:33:29 10:37:40 71° 75° (ENE) 10:41:53 437.405
GOMX 1 23 Dec 10:34:25 10:38:47 36° 290° (WNW) 10:43:26 467.674
FUNcube-1 23 Dec 10:36:45 10:41:14 55° 100° (E) 10:45:44 145.935
ESTCUBE 1 23 Dec 10:38:19 10:40:07 12° 89° (E) 10:41:54 437.505/2401.250
O/OREOS (USA 219) 23 Dec 10:40:28 10:44:57 64° 250° (WSW) 10:49:26 437.305
BUGSAT 1 23 Dec 10:44:37 10:48:41 76° 75° (ENE) 10:52:45 437.445
UWE-3 23 Dec 10:45:00 10:49:39 81° 103° (ESE) 10:54:20 435.000/436.395/437.385
DOVE 4 23 Dec 10:46:06 10:50:30 36° 290° (WNW) 10:55:07 437.250
HUMSAT D 23 Dec 10:49:10 10:53:19 43° 99° (E) 10:57:28 437.325/437.525
CINEMA 3 23 Dec 10:49:26 10:54:05 52° 287° (WNW) 10:58:53 145.822/145.860
DX 1 23 Dec 10:51:45 10:56:04 67° 286° (WNW) 11:00:23 434.975-435.025
CUSAT 1 23 Dec 10:55:37 10:58:56 22° 297° (WNW) 11:03:03 437.405
DUCHIFAT 1 23 Dec 11:00:01 11:04:09 58° 259° (W) 11:08:19 145.980
CUBEBUG 1 23 Dec 11:03:41 11:07:00 21° 94° (E) 11:10:18 437.445
RS-15 23 Dec 11:04:20 11:14:24 45° 110° (ESE) 11:24:27 29.354- 29.394
AAUSAT CUBESAT 2 23 Dec 11:04:34 11:07:30 19° 295° (WNW) 11:10:25 437.432
TIGRISAT 23 Dec 11:06:39 11:10:37 34° 263° (W) 11:14:43 435.000
AISAT 23 Dec 11:07:53 11:12:18 63° 101° (ESE) 11:16:43 437.250
Oscar 11 23 Dec 11:09:26 11:13:19 32° 291° (WNW) 11:17:10 145.826/435.025
QB50P2 23 Dec 11:16:07 11:20:02 37° 262° (W) 11:23:59 145.880/145.840
UKube-1 23 Dec 11:19:50 11:23:46 35° 291° (WNW) 11:27:42 .
NANOSAT C BR1 23 Dec 11:25:49 11:29:31 30° 264° (W) 11:33:15 145.865
POLYITAN 1 23 Dec 11:26:21 11:30:02 29° 264° (W) 11:33:44 437.675
HO-68 23 Dec 11:38:20 11:43:13 20° 306° (NW) 11:48:04 435.675
50 SAT 23 Dec 11:38:50 11:42:57 65° 285° (WNW) 11:47:04 437.505
UNISAT 6 23 Dec 11:38:57 11:41:44 16° 269° (W) 11:44:34 437.425
DELFI C3 23 Dec 11:40:25 11:43:07 17° 295° (WNW) 11:45:48 145.870
QB50P1 23 Dec 11:41:25 11:44:36 21° 266° (W) 11:47:49 145.935-145.965
TISAT 1 23 Dec 11:47:00 11:49:30 15° 92° (E) 11:52:00 437.305
ZACube-1 23 Dec 11:47:40 11:51:33 28° 292° (WNW) 11:55:28 437.345
CUBEBUG 2 23 Dec 11:50:31 11:54:02 21° 294° (WNW) 11:57:34 437.445
Oscar 19 23 Dec 11:58:09 12:01:39 19° 61° (ENE) 12:05:10 437.125/150
SPROUT 23 Dec 11:59:41 12:02:54 20° 93° (E) 12:06:06 437.525
VELOX 1 23 Dec 11:59:42 12:03:47 38° 290° (WNW) 12:07:53 145.980
PCSat 23 Dec 12:04:18 12:04:26 10° 101° (E) 12:04:35 145.827
BEESAT 3 23 Dec 12:05:54 12:08:40 18° 111° (ESE) 12:11:29 437.485
ESTCUBE 1 23 Dec 12:12:58 12:17:26 66° 286° (WNW) 12:21:52 437.505/2401.250
FUNcube-1 23 Dec 12:14:16 12:17:09 17° 296° (WNW) 12:20:02 145.935
YUBILEINY 23 Dec 12:17:57 12:26:01 45° 272° (W) 12:34:06 435.215
ITAMSAT 1 23 Dec 12:22:28 12:24:26 12° 57° (ENE) 12:26:25 435.822/435.867
UWE-3 23 Dec 12:23:42 12:25:33 12° 299° (WNW) 12:27:25 435.000/436.395/437.385
HUMSAT D 23 Dec 12:25:47 12:28:48 19° 295° (WNW) 12:31:50 437.325/437.525
AIST 2 23 Dec 12:31:01 12:33:12 14° 109° (ESE) 12:35:24 435.215
Gurwin Techsat 1B 23 Dec 12:36:50 12:37:25 10° 55° (NE) 12:38:00 435.225
CUBEBUG 1 23 Dec 12:39:30 12:43:27 36° 290° (WNW) 12:47:25 437.445
AISAT 23 Dec 12:46:05 12:48:25 14° 298° (WNW) 12:50:46 437.250
BEESAT 23 Dec 12:46:18 12:46:35 10° 88° (E) 12:46:52 436.000
BEESAT 2 23 Dec 12:47:17 12:51:11 43° 117° (ESE) 12:55:09 435.950
